Location: Estes Park
(40.3770°N, 105.5210°W)
Time: 17:03:20
(UTC-06:00)

ISS - Pass Details

Date: 09 October 2017
Orbit: 401 x 408 km, 51.6° (Epoch: 22 October)

Event Time Altitude Azimuth Distance (km) Brightness Sun altitude
Rises 20:06:06 0° 312° (NW) 2,321 0.9 -18.9°
Reaches altitude 10° 20:08:25 10° 326° (NNW) 1,461 -0.5 -19.4°
Enters shadow 20:10:42 24° 9° (N) 884 -2.2 -19.8°
